TITAN 3C TRANSTAGE DEB, 26778

Orbit data source: Space-Track

TITAN 3C TRANSTAGE DEB, 26778 is space debris in HEO originally from a launch on Tue, 21 Dec 1965 UTC launched from the Air Force Eastern Test Range (AFETR). Debris objects in space refer to the collection of defunct objects orbiting the Earth. Examples of debris include non-operational satellites, rocket bodies, and fragments generated from explosions, collisions, or faulty payload assembly.

Loading next visibility...
Identifier
26778, 1965-108AW
Orbit
HEO
Country
Flag of USUS
Related business
Manufacturer
Unknown
Mission
Spacecraft
Bus & Motor
Unknown
Mass
Unknown
Launch date (UTC)
1965-12-21 (60 years ago)
Launch vehicle
Unknown
Launch site
Air Force Eastern Test Range (AFETR)
Object type
Payload
Rocket body
Debris
Shape & HBR
Unknown shape, 0.2 m
Radar Cross Section
Medium (>0.1 m² and <1 m²)

Expand to show TLE details & history
Last TLE update: 1 day ago

TLE from 1 day ago
0 TITAN 3C TRANSTAGE DEB
1 26778U 65108AW  26072.81717800 -.00000198  00000-0 -46219-2 0  9993
2 26778  27.7167 111.5573 6782221 173.5847 359.7350  2.65421641110328
Epoch: 2026-03-13T19:36Z
TLE epoch observation values (Epoch: 2026-03-13T19:36:44.179Z)
Latitude
4.19359°
Longitude
177.96882°
Altitude
725.078 km
Speed
9.703 km/s
True Right ascension
18h 54m 24s
True Declination
4° 10' 07"
Sunlit
Object was in daylight at epoch
Visualization orbit readout
Latitude
Unknown
Longitude
Unknown
Altitude
Unknown
Speed
Unknown
Apparent Right ascension
Unknown
Apparent Declination
Unknown
Sunlit
N/A
Visualization observer readout
Local Sidereal Time
23:38:11
Azimuth
Unknown
Elevation
Unknown
Doppler factor
Unknown
Orbital elements
Apogee altitude
30,607.041 km
Perigee altitude
713.304 km
Semi-major axis
22,038.31 km
Eccentricity
0.67822
Inclination
27.7167°
RAAN
111.5573°
Arg. of periapsis
173.5847°
True anomaly
358.1195°
Mean anomaly
359.735°
Eccentric anomaly
359.17651°
Mean motion
0.6634 °/min
Orbital period
542.66 mins
BSTAR
-0.0046219
Loading maneuver chart data...
Computing Atmospheric mass density...

Documentation

Showing up to 5 results
|